TimeCST,TemperatureF,Dew PointF,Humidity,Sea Level PressureIn,VisibilityMPH,Wind Direction,Wind SpeedMPH,Gust SpeedMPH,PrecipitationIn,Events,Conditions,WindDirDegrees,DateUTC
12:56 AM,12.9,9.0,84,30.15,-9999.0,South,17.3,-,N/A,,Unknown,170,2014-03-06 06:56:00
1:56 AM,15.1,10.9,84,30.13,-9999.0,SSE,13.8,-,N/A,,Unknown,160,2014-03-06 07:56:00
2:56 AM,19.9,15.1,81,30.09,-9999.0,South,16.1,-,N/A,,Unknown,180,2014-03-06 08:56:00
3:56 AM,21.9,17.1,82,30.04,-9999.0,South,16.1,-,N/A,,Unknown,180,2014-03-06 09:56:00
4:56 AM,24.1,18.0,77,30.00,-9999.0,South,18.4,32.2,N/A,,Unknown,190,2014-03-06 10:56:00
5:56 AM,24.1,18.0,77,29.96,-9999.0,South,18.4,25.3,N/A,,Unknown,170,2014-03-06 11:56:00
6:56 AM,26.1,19.9,78,29.94,-9999.0,South,20.7,-,N/A,,Unknown,180,2014-03-06 12:56:00
7:56 AM,27.0,21.0,78,29.92,-9999.0,South,19.6,-,N/A,,Unknown,180,2014-03-06 13:56:00
8:56 AM,28.0,21.9,78,29.91,-9999.0,South,17.3,-,N/A,,Unknown,180,2014-03-06 14:56:00
9:56 AM,30.9,24.1,76,29.88,-9999.0,South,19.6,-,N/A,,Unknown,180,2014-03-06 15:56:00
10:56 AM,33.1,25.0,72,29.87,-9999.0,SSW,21.9,-,N/A,,Unknown,210,2014-03-06 16:56:00
11:56 AM,35.1,27.0,72,29.85,-9999.0,South,16.1,-,N/A,,Unknown,190,2014-03-06 17:56:00
12:56 PM,37.0,28.0,70,29.84,-9999.0,SSW,12.7,-,N/A,,Unknown,210,2014-03-06 18:56:00
1:56 PM,37.0,28.0,70,29.81,-9999.0,SSW,15.0,-,N/A,,Unknown,210,2014-03-06 19:56:00
2:56 PM,39.0,28.9,67,29.78,-9999.0,SSW,15.0,-,N/A,,Unknown,200,2014-03-06 20:56:00
3:56 PM,37.9,30.0,73,29.78,-9999.0,SSW,10.4,-,N/A,,Unknown,200,2014-03-06 21:56:00
4:56 PM,37.9,30.0,73,29.75,-9999.0,South,13.8,-,N/A,,Unknown,190,2014-03-06 22:56:00
5:56 PM,36.0,30.0,79,29.75,-9999.0,South,10.4,-,N/A,,Unknown,180,2014-03-06 23:56:00
6:56 PM,33.1,28.9,85,29.73,-9999.0,SSE,12.7,-,N/A,,Unknown,160,2014-03-07 00:56:00
7:56 PM,33.1,28.9,85,29.74,-9999.0,SSE,9.2,-,N/A,,Unknown,160,2014-03-07 01:56:00
8:56 PM,32.0,28.9,88,29.74,-9999.0,South,9.2,-,N/A,,Unknown,170,2014-03-07 02:56:00
9:56 PM,32.0,28.9,88,29.73,-9999.0,SSE,10.4,-,N/A,,Unknown,160,2014-03-07 03:56:00
10:56 PM,32.0,30.0,92,29.75,-9999.0,Calm,Calm,-,N/A,,Unknown,0,2014-03-07 04:56:00
11:56 PM,30.9,30.0,96,29.76,-9999.0,Calm,Calm,-,N/A,,Unknown,0,2014-03-07 05:56:00